     2              OBSERVATION DATA    GPS                 RINEX VERSION / TYPE
teqc 1999Jul19 19991123 02:44:45UTC                         PGM / RUN BY / DATE
                                                            COMMENT
Original Marker Name: 0208                                  COMMENT
Campaign Name: HPGN 1991                                    COMMENT
4-Character Station Name: 0208                              COMMENT
6-Character Antenna Code: TRMSST                            COMMENT
Vertical Measurement Point: BPA                             COMMENT
Vertical Offset to Rinex Ref. Point: 0.0000                 COMMENT
Radial Measurement Point: RRP                               COMMENT
Radial Offset to Rinex Ref. Point: 0.0000                   COMMENT
Antenna Height from Field Measurement: 2.2200 m             COMMENT
                                                            COMMENT
Original XYZ: -2553771.1820 -4043559.9851 4207613.4935      COMMENT
New XYZ position is based on association with SCEC monument COMMENT
E1P2K4T0+0011. Position of that monument is believed to be  COMMENT
valid to within 1 m horizontally; vertical accuracy         COMMENT
should be no worse than 3-times this value.                 COMMENT
                                                            COMMENT
Revised Rinex header created by UCSD GPS archive for        COMMENT
GSAC on 10-Mar-2000 (2000:070) 04:30:03 GMT                 COMMENT
For assistance contact dagnew@ucsd.edu or hjohnson@ucsd.edu COMMENT
                                                            COMMENT
HPGN CA 02 08                                               MARKER NAME
0208                                                        MARKER NUMBER
-Unknown- CALIF DEPT TRANSPORTATION                         OBSERVER / AGENCY
360 TRIMBLE 4000 SST NP 4.53 / SP 4.20                      REC # / TYPE / VERS
42 TR 4000SST L1/L2 GEO                                     ANT # / TYPE
 -2553762.0363 -4043561.1800  4207608.4841                  APPROX POSITION XYZ
        2.2200        0.0000        0.0000                  ANTENNA: DELTA H/E/N
     1     1     0                                          WAVELENGTH FACT L1/2
     5    C1    L1    L2    S1    S2                        # / TYPES OF OBSERV
     0                                                      INTERVAL
  1991     6    25    20     5   15.000000                  TIME OF FIRST OBS
  1991     6    25    21    27   60.000000                  TIME OF LAST OBS
                                                            END OF HEADER
 91  6 25 20  5 15.0000000  0  3G13G 2G12
  20829060.477          -0.10917                        25.750
  21683179.570          -0.02917                        26.000
  24235796.297          -0.53615                         9.000
 91  6 25 20  5 30.0000000  0  3G13G 2G12
  20820571.711      -44608.244 7                        26.000
  21684840.250        8755.335 7                        24.500
  24223368.695      -65271.770 5                         9.250
 91  6 25 20  5 45.0000000  0  3G13G 2G12
  20812110.688      -89070.041 7        -0.17931        25.750           1.219
  21686520.164       17573.730 7        -0.23632        25.000           2.063
  24210954.633     -130526.559 5                         9.750
 91  6 25 20  6  0.0000000  0  3G13G 2G12
  20803676.961     -133385.645 7    -34531.80321        25.500           1.313
  21688211.430       26454.702 7      6919.97322        26.000           2.031
  24198540.633     -195764.875 5        -0.36231        10.750           0.188
 91  6 25 20  6 15.0000000  0  3G13G 2G12
  20795272.602     -177557.703 7    -68951.56821        25.750           1.344
  21689914.008       35395.763 7     13887.01122        25.750           1.906
  24186125.156     -260989.046 5    -50824.38721        10.000           0.219
 91  6 25 20  6 30.0000000  0  3G13G 2G12
  20786893.531     -221584.063 7   -103257.80521        25.750           1.313
  21691625.164       44398.838 7     20902.38422        25.500           1.906
  24173717.703     -326196.840 5   -101635.61821         9.750           0.156
 91  6 25 20  6 45.0000000  0  3G13G 2G12
  20778545.219     -265465.902 7   -137451.43221        25.750           1.438
  21693350.641       53462.471 7     27964.93222        26.500           2.063
  24161311.688     -391389.538 5   -152435.08621         9.250           0.313
 91  6 25 20  7  0.0000000  0  3G13G 2G12
  20770221.570     -309202.343 7   -171531.76021        26.000           1.375
  21695085.898       62587.364 7     35075.21522        25.500           2.188
  24148908.125     -456566.130 5   -203222.02121         8.750           0.281
 91  6 25 20  7 15.0000000  0  3G13G 2G12
  20761923.906     -352796.448 7   -205501.17821        26.250           1.375
  21696835.953       71770.580 7     42230.95222        25.750           1.938
  24136505.719     -521729.428 5   -253998.55921         8.500           0.250
 91  6 25 20  7 30.0000000  0  3G13G 2G12
  20753657.211     -396245.997 7   -239357.94921        26.250           1.344
  21698592.281       81014.318 7     49433.84322        25.500           1.969
  24124112.297     -586876.951 5   -304762.80321         9.250           0.281
 91  6 25 20  7 45.0000000  0  3G13G 2G12
  20745418.078     -439553.077 7   -273103.70621        26.250           1.406
  21700365.500       90316.158 7     56682.01322        25.000           1.813
  24111721.500     -652010.799 5   -355516.40321         9.000           0.344
 91  6 25 20  8  0.0000000  0  3G13G 2G12
  20737203.672     -482716.374 7   -306737.43721        26.000           1.313
  21702144.750       99676.945 7     63976.11622        26.000           1.875
  24099323.398     -717129.932 5   -406258.52421         9.000           0.438
 91  6 25 20  8 15.0000000  0  3G13G 2G12
  20729018.141     -525736.961 7   -340259.94321        26.250           1.313
  21703938.625      109095.664 7     71315.36622        25.500           1.844
  24086933.992     -782235.104 5   -456989.76921         8.500           0.406
 91  6 25 20  8 30.0000000  0  3G13G 2G12
  20720857.961     -568613.214 7   -373670.00021        26.500           1.313
  21705741.180      118573.643 7     78700.78122        25.750           1.938
  24074550.289     -847324.532 5   -507708.76421         8.500           0.375
 91  6 25 20  8 45.0000000  0  3G13G 2G12
  20712726.438     -611349.440 7   -406970.93721        26.750           1.313
  21707556.477      128106.504 7     86128.96122        26.000           1.906
  24062166.672     -912402.497 5   -558418.82821         8.500           0.375
 91  6 25 20  9  0.0000000  0  3G13G 2G12
  20704619.148     -653945.226 7   -440162.43821        26.500           1.344
  21709383.367      137694.629 7     93600.20122        26.000           1.781
  24049781.664     -977468.410 5   -609119.49921         8.500           0.313
 91  6 25 20  9 15.0000000  0  3G13G 2G12
  20696542.555     -696394.551 7   -473239.82021        27.000           1.313
  21711217.586      147343.993 7    101119.17622        25.250           1.875
  24037405.516    -1042515.983 5   -659805.89721         8.750           0.281
 91  6 25 20  9 30.0000000  0  3G13G 2G12
  20688489.297     -738705.010 7   -506208.99221        26.500           1.406
  21713064.234      157046.481 7    108679.53722        25.500           1.906
  24025030.102    -1107552.929 5   -710483.99421         9.750           0.344
 91  6 25 20  9 45.0000000  0  3G13G 2G12
  20680465.617     -780876.760 7   -539070.08321        26.750           1.438
  21714921.398      166801.994 7    116281.20622        25.500           2.031
  24012659.055    -1172579.149 5   -761153.75921         9.500           0.344
 91  6 25 20 10  0.0000000  0  3G13G 2G12
  20672467.641     -822904.092 7   -571818.63721        27.250           1.344
  21716785.859      176616.401 7    123928.77922        25.000           1.875
  24000286.938    -1237588.711 5   -811810.53421         9.250           0.281
 91  6 25 20 10 15.0000000  0  3G13G 2G12
  20664496.492     -864792.102 7   -604458.62721        26.750           1.406
  21718666.773      186484.378 7    131618.08622        25.500           1.750
  23987917.539    -1302586.624 5   -862458.18721         9.250           0.344
 91  6 25 20 10 30.0000000  0  3G13G 2G12
  20656552.844     -906532.440 7   -636983.54821        26.750           1.375
  21720556.531      196413.799 7    139355.27822        25.000           1.813
  23975557.617    -1367564.569 5   -913090.29621         9.250           0.219
 91  6 25 20 10 45.0000000  0  3G13G 2G12
  20648637.336     -948131.256 7   -669398.18821        27.250           1.375
  21722455.305      206398.592 7    147135.61422        24.500           1.813
  23963189.938    -1432528.396 5   -963711.41621         9.000           0.281
 91  6 25 20 11  0.0000000  0  3G13G 2G12
  20640747.906     -989590.020 7   -701703.70921        27.250           1.375
  21724365.727      216437.282 7    154957.94522        25.000           1.688
  23950828.469    -1497479.540 5  -1014322.60721         8.250           0.188
 91  6 25 20 11 15.0000000  0  3G13G 2G12
  20632887.211    -1030909.143 7   -733900.41321        27.500           1.406
  21726287.320      226529.168 7    162821.73022        25.000           1.750
  23938471.719    -1562418.311 5  -1064924.22621         8.250           0.281
 91  6 25 20 11 30.0000000  0  3G13G 2G12
  20625050.938    -1072086.640 7   -765986.75621        27.250           1.344
  21728214.945      236676.165 7    170728.46122        24.250           1.750
  23926115.844    -1627342.567 5  -1115514.50921         8.250           0.094
 91  6 25 20 11 45.0000000  0  3G13G 2G12
  20617242.039    -1113119.538 7   -797960.43021        27.500           1.469
  21730157.766      246881.005 7    178680.26922        25.000           1.781
  23913765.945    -1692249.026 5  -1166090.94421         8.250           0.250
 91  6 25 20 12  0.0000000  0  3G13G 2G12
  20609460.109    -1154014.721 7   -829826.78921        27.500           1.469
  21732105.805      257136.601 7    186671.62022        23.750           1.688
  23901416.281    -1757144.576 5  -1216658.87121         9.000           0.281
 91  6 25 20 12 15.0000000  0  3G13G 2G12
  20601702.391    -1194772.454 7   -861586.04722        26.750           1.531
  21734070.422      267442.752 7    194702.36722        24.250           1.781
  23889068.055    -1822029.308 5  -1267218.33721         9.250           0.375
 91  6 25 20 12 30.0000000  0  3G13G 2G12
  20593972.914    -1235392.531 7   -893238.03521        27.500           1.469
  21736042.539      277799.530 7    202772.55322        24.750           1.688
  23876724.031    -1886902.882 5  -1317769.16521        10.250           0.344
 91  6 25 20 12 45.0000000  0  3G13G 2G12
  20586270.664    -1275866.460 7   -924776.14222        26.500           1.563
  21738024.914      288215.478 7    210888.85722        25.500           1.844
  23864380.102    -1951756.510 5  -1368304.41921        10.250           0.281
 91  6 25 20 13  0.0000000  0  3G13G 2G12
  20578598.828    -1316204.528 8   -956208.38922        28.250           1.531
  21740013.898      298679.949 7    219042.96522        24.500           1.938
  23852043.000    -2016600.470 5  -1418832.14421        10.500           0.219
 91  6 25 20 13 15.0000000  0  3G13G 2G12
  20570944.109    -1356408.806 7   -987536.37921        26.750           1.406
  21742016.570      309190.543 7    227233.01222        25.250           1.781
  23839705.609    -2081436.971 5  -1469354.05521        10.500           0.344
 91  6 25 20 13 30.0000000  0  3G13G 2G12
  20563323.422    -1396467.897 7  -1018751.24522        27.250           1.531
  21744028.281      319758.832 7    235468.01922        25.750           1.875
  23827369.430    -2146253.934 5  -1519860.73621        10.500           0.281
 91  6 25 20 13 45.0000000  0  3G13G 2G12
  20555723.063    -1436393.667 7  -1049862.21521        27.000           1.406
  21746047.430      330372.819 7    243738.63622        25.000           1.844
  23815036.930    -2211063.320 5  -1570361.56021        10.250           0.156
 91  6 25 20 14  0.0000000  0  3G13G 2G12
  20548153.664    -1476178.875 7  -1080863.66121        27.750           1.469
  21748073.953      341039.606 7    252050.39622        24.750           1.844
  23802707.586    -2275857.696 5  -1620850.62421         9.000           0.250
 91  6 25 20 14 15.0000000  0  3G13G 2G12
  20540610.742    -1515818.410 8  -1111751.59321        28.000           1.469
  21750118.383      351764.372 7    260407.33222        25.250           1.813
  23790376.984    -2340631.691 5  -1671323.83321         8.500           0.219
 91  6 25 20 14 30.0000000  0  3G13G 2G12
  20533095.469    -1555317.430 8  -1142530.03622        28.000           1.500
  21752167.586      362541.677 7    268805.20122        25.500           1.938
  23778062.836    -2405390.568 5  -1721785.24221         8.250           0.313
 91  6 25 20 14 45.0000000  0  3G13G 2G12
  20525602.672    -1594677.132 7  -1173199.91722        27.250           1.563
  21754227.320      373370.219 7    277243.00322        25.000           1.906
  23765736.375    -2470135.219 5  -1772235.56321         8.500           0.438
 91  6 25 20 15  0.0000000  0  3G13G 2G12
  20518141.336    -1633897.431 7  -1203761.17122        27.750           1.531
  21756300.305      384250.030 7    285720.75422        25.500           1.906
  23753422.023    -2534865.391 5  -1822674.59821         8.750           0.281
 91  6 25 20 15 15.0000000  0  3G13G 2G12
  20510706.594    -1672972.852 8  -1234209.54422        28.500           1.594
  21758378.531      395186.214 7    294242.43422        24.000           1.719
  23741109.328    -2599575.593 5  -1873098.08121         9.250           0.406
 91  6 25 20 15 30.0000000  0  3G13G 2G12
  20503297.719    -1711909.996 8  -1264550.14721        28.250           1.406
  21760469.648      406172.387 7    302803.05522        24.250           1.688
  23728793.547    -2664272.044 5  -1923510.85721        10.500           0.406
 91  6 25 20 15 45.0000000  0  3G13G 2G12
  20495911.422    -1750707.885 7  -1294782.25922        27.250           1.531
  21762571.297      417209.374 7    311403.27922        24.750           1.813
  23716488.133    -2728953.708 5  -1973912.13121        11.500           0.375
 91  6 25 20 16  0.0000000  0  3G13G 2G12
  20488555.602    -1789368.456 7  -1324907.36622        27.250           1.531
  21764681.055      428295.085 7    320041.46822        24.500           1.750
  23704183.047    -2793622.322 6  -2024303.21621        12.250           0.313
 91  6 25 20 16 15.0000000  0  3G13G 2G12
  20481225.438    -1827884.859 7  -1354920.13621        27.250           1.344
  21766801.852      439436.358 7    328722.95622        24.250           1.656
  23691876.820    -2858270.789 5  -2074678.62721        11.250           0.375
 91  6 25 20 16 30.0000000  0  3G13G 2G12
  20473923.211    -1866262.368 7  -1384824.67321        27.000           1.344
  21768932.133      450627.598 7    337443.37022        24.750           1.875
  23679580.164    -2922904.317 5  -2125042.37721        10.000           0.219
 91  6 25 20 16 45.0000000  0  3G13G 2G12
  20466647.180    -1904495.874 7  -1414617.00421        27.500           1.406
  21771069.797      461873.872 7    346206.66922        23.500           1.688
  23667280.273    -2987517.660 5  -2175390.40721         9.750           0.375
 91  6 25 20 17  0.0000000  0  3G13G 2G12
  20459398.211    -1942590.462 7  -1444301.08522        27.250           1.563
  21773221.188      473170.022 7    355008.83422        23.750           1.750
  23654991.422    -3052115.822 5  -2225726.56821         9.750           0.344
 91  6 25 20 17 15.0000000  0  3G13G 2G12
  20452175.875    -1980544.852 7  -1473875.92021        26.750           1.438
  21775380.516      484517.340 7    363850.87122        24.750           1.844
  23642703.172    -3116697.125 5  -2276049.61621        10.250           0.375
 91  6 25 20 17 30.0000000  0  3G13G 2G12
  20444980.555    -2018354.977 7  -1503338.33921        27.000           1.406
  21777552.453      495919.992 7    372736.02822        25.250           1.719
  23630413.875    -3181257.235 5  -2326356.14521        10.000           0.250
 91  6 25 20 17 45.0000000  0  3G13G 2G12
  20437812.914    -2056024.776 7  -1532691.41221        27.000           1.469
  21779730.125      507373.804 7    381661.04122        24.750           1.625
  23618130.922    -3245799.906 5  -2376649.11521         9.500           0.344
 91  6 25 20 18  0.0000000  0  3G13G 2G12
  20430671.680    -2093553.055 7  -1561934.21322        27.500           1.531
  21781917.297      518879.610 7    390626.57522        23.250           1.688
  23605853.695    -3310323.961 5  -2426927.55721        10.000           0.281
 91  6 25 20 18 15.0000000  0  3G13G 2G12
  20423553.422    -2130945.331 7  -1591071.03822        26.500           1.563
  21784117.352      530432.144 7    399628.51922        24.000           1.688
  23593579.398    -3374834.463 5  -2477195.46621         9.750           0.344
 91  6 25 20 18 30.0000000  0  3G13G 2G12
  20416469.094    -2168191.732 7  -1620094.19622        27.000           1.531
  21786324.773      542040.989 7    408674.33722        23.000           1.688
  23581309.242    -3439321.550 5  -2527445.09121         9.750           0.281
 91  6 25 20 18 45.0000000  0  3G13G 2G12
  20409407.289    -2205293.455 7  -1649004.61622        26.750           1.500
  21788547.594      553704.978 7    417763.13322        23.500           1.688
  23569034.766    -3503786.074 5  -2577677.16221         9.500           0.219
 91  6 25 20 19  0.0000000  0  3G13G 2G12
  20402375.945    -2242249.332 7  -1677801.38921        27.500           1.469
  21790772.570      565425.152 7    426895.71022        23.250           1.563
  23556777.406    -3568226.734 5  -2627890.62921         9.500           0.281
 91  6 25 20 19 15.0000000  0  3G13G 2G12
  20395367.922    -2279066.757 7  -1706490.27322        26.750           1.500
  21793016.477      577193.758 7    436066.01722        24.250           1.656
  23544522.055    -3632650.981 5  -2678091.29521         9.750           0.313
 91  6 25 20 19 30.0000000  0  3G13G 2G12
  20388389.602    -2315735.927 7  -1735063.63621        26.750           1.406
  21795265.594      589020.680 7    445281.77222        23.250           1.563
  23532261.453    -3697048.704 5  -2728271.29821        10.250           0.281
 91  6 25 20 19 45.0000000  0  3G13G 2G12
  20381438.656    -2352264.219 7  -1763527.23521        27.250           1.438
  21797520.297      600898.650 7    454537.30722        21.750           1.750
  23520014.234    -3761426.774 5  -2778435.98721        11.000           0.375
 91  6 25 20 20  0.0000000  0  3G13G 2G12
  20374514.508    -2388649.648 7  -1791879.50121        27.000           1.406
  21799794.516      612829.686 7    463834.18522        22.250           1.625
  23507767.523    -3825783.063 5  -2828583.71921        10.750           0.500
 91  6 25 20 20 15.0000000  0  3G13G 2G12
  20367619.430    -2424886.482 7  -1820115.98321        26.750           1.375
  21802077.555      624819.169 7    473176.60622        23.500           1.688
  23495521.859    -3890111.950 5  -2878710.07521         9.500           0.313
 91  6 25 20 20 30.0000000  0  3G13G 2G12
  20360749.953    -2460977.132 7  -1848238.55621        26.500           1.344
  21804371.695      636864.775 7    482562.75622        24.000           1.656
  23483288.898    -3954415.403 5  -2928816.62021         9.250           0.438
 91  6 25 20 20 45.0000000  0  3G13G 2G12
  20353913.383    -2496922.531 7  -1876247.94321        26.750           1.406
  21806675.977      648965.558 7    491991.91022        24.500           1.688
  23471056.914    -4018694.087 5  -2978903.83621         9.500           0.375
 91  6 25 20 21  0.0000000  0  3G13G 2G12
  20347098.742    -2532723.087 7  -1904144.46821        27.250           1.406
  21808983.797      661120.898 7    501463.57722        22.500           1.656
  23458828.547    -4082948.307 5  -3028972.03721        10.500           0.406
 91  6 25 20 21 15.0000000  0  3G13G 2G12
  20340313.828    -2568374.124 7  -1931924.48021        27.250           1.344
  21811309.641      673335.381 7    510981.33122        22.000           1.563
  23446609.469    -4147173.074 5  -3079017.25621        11.500           0.313
 91  6 25 20 21 30.0000000  0  3G13G 2G12
  20333557.320    -2603877.707 7  -1959589.59621        26.500           1.281
  21813647.875      685607.012 7    520543.60022        23.750           1.594
  23434393.633    -4211370.191 5  -3129040.94221        11.750           0.438
 91  6 25 20 21 45.0000000  0  3G13G 2G12
  20326830.813    -2639233.234 7  -1987139.34421        27.000           1.344
  21815992.320      697936.141 7    530150.68522        23.000           1.500
  23422181.617    -4275538.983 5  -3179042.55921        11.500           0.375
 91  6 25 20 22  0.0000000  0  3G13G 2G12
  20320129.891    -2674443.387 7  -2014575.81521        27.500           1.250
  21818346.602      710319.956 7    539800.37822        23.250           1.563
  23409970.211    -4339681.982 5  -3229024.07521        10.250           0.375
 91  6 25 20 22 15.0000000  0  3G13G 2G12
  20313458.539    -2709507.455 7  -2041898.45021        27.250           1.188
  21820713.422      722759.301 7    549493.34522        23.500           1.656
  23397772.313    -4403798.128 5  -3278984.67421        10.250           0.406
 91  6 25 20 22 29.9990000  0  3G13G 2G12
  20306814.581    -2744422.679 7  -2069105.10121        27.250           1.156
  21823091.362      735253.702 7    559229.20821        23.250           1.469
  23385578.730    -4467882.427 5  -3328920.43921        10.750           0.313
 91  6 25 20 22 44.9990000  0  3G13G 2G12
  20300197.534    -2779190.147 7  -2096196.63221        26.500           1.125
  21825479.784      747808.324 7    569011.99822        23.250           1.594
  23373388.526    -4531939.721 5  -3378835.15621        11.250           0.375
 91  6 25 20 22 59.9990000  0  3G13G 2G12
  20293609.706    -2813810.645 7  -2123173.62521        26.250           1.250
  21827882.128      760419.061 7    578838.51522        24.500           1.625
  23361207.440    -4595968.565 5  -3428727.72521        11.500           0.438
 91  6 25 20 23 14.9990000  0  3G13G 2G12
  20287051.690    -2848278.227 7  -2150031.46921        26.750           1.188
  21830291.394      773091.905 7    588713.42722        23.250           1.531
  23349023.839    -4659962.730 5  -3478593.25721        11.500           0.375
 91  6 25 20 23 29.9990000  0  3G13G 2G12
  20280518.706    -2882601.207 7  -2176776.63021        26.750           1.156
  21832712.784      785818.539 7    598630.24622        23.500           1.563
  23336851.253    -4723930.309 5  -3528438.11021        11.750           0.375
 91  6 25 20 23 44.9990000  0  3G13G 2G12
  20274016.925    -2916769.702 7  -2203401.41921        27.000           1.156
  21835147.558      798608.673 7    608596.55522        23.250           1.500
  23324687.972    -4787861.365 6  -3578254.48121        12.250           0.375
 91  6 25 20 23 59.9990000  0  3G13G 2G12
  20267540.355    -2950787.584 7  -2229908.85021        26.500           1.281
  21837594.855      811458.459 7    618609.34821        24.250           1.469
  23312525.956    -4851759.414 5  -3628045.11121        11.750           0.344
 91  6 25 20 24 14.9990000  0  3G13G 2G12
  20261099.315    -2984655.150 7  -2256299.14721        27.500           1.188
  21840051.151      824367.587 7    628668.37322        23.500           1.563
  23300377.370    -4915624.465 5  -3677810.06721        11.750           0.500
 91  6 25 20 24 29.9990000  0  3G13G 2G12
  20254681.409    -3018373.549 7  -2282573.21621        27.250           1.219
  21842519.269      837334.798 7    638772.66722        23.500           1.594
  23288226.409    -4979457.401 5  -3727549.96721        11.000           0.406
 91  6 25 20 24 44.9990000  0  3G13G 2G12
  20248293.206    -3051941.465 7  -2308730.01621        27.500           1.125
  21844997.284      850361.204 7    648923.08322        23.000           1.500
  23276086.573    -5043256.749 5  -3777263.70721        11.250           0.438
 91  6 25 20 24 59.9990000  0  3G13G 2G12
  20241935.823    -3085358.621 7  -2334769.34621        27.500           1.188
  21847485.503      863447.299 7    659120.00321        22.500           1.406
  23263948.690    -5107021.954 6  -3826950.85721        12.000           0.500
 91  6 25 20 25 14.9990000  0  3G13G 2G12
  20235603.065    -3118629.690 7  -2360694.84121        27.250           1.125
  21849989.386      876588.407 7    669359.80121        22.500           1.281
  23251826.894    -5170757.303 6  -3876614.72921        12.750           0.375
 91  6 25 20 25 29.9990000  0  3G13G 2G12
  20229301.698    -3151747.627 7  -2386501.01821        27.500           1.094
  21852499.683      889791.570 7    679647.94921        23.250           1.344
  23239704.847    -5234455.615 6  -3926249.75321        12.750           0.344
 91  6 25 20 25 44.9990000  0  3G13G 2G12
  20223029.003    -3184713.423 8  -2412188.63721        28.000           1.250
  21855024.878      903055.560 7    689983.49522        23.000           1.531
  23227587.136    -5298117.619 6  -3975856.47221        12.000           0.469
 91  6 25 20 25 59.9990000  0  3G13G 2G12
  20216783.737    -3217524.832 7  -2437755.95621        27.750           1.250
  21857561.667      916382.509 7    700368.10321        23.500           1.438
  23215484.237    -5361740.875 5  -4025432.99921        11.500           0.438
 91  6 25 20 26 14.9990000  0  3G13G 2G12
  20210568.058    -3250185.436 7  -2463205.76721        27.750           1.156
  21860108.440      929768.835 7    710798.97021        22.750           1.344
  23203384.003    -5425328.665 5  -4074981.89321        11.750           0.375
 91  6 25 20 26 29.9990000  0  3G13G 2G12
  20204382.058    -3282696.508 7  -2488539.05821        27.750           1.094
  21862666.073      943213.362 7    721275.19322        22.250           1.531
  23191289.620    -5488881.919 5  -4124503.86921        11.750           0.375
 91  6 25 20 26 44.9990000  0  3G13G 2G12
  20198224.964    -3315056.875 7  -2513754.91921        27.750           1.219
  21865236.698      956716.952 7    731797.42921        22.750           1.438
  23179204.605    -5552399.386 6  -4173997.95421        12.000           0.469
 91  6 25 20 26 59.9990000  0  3G13G 2G12
  20192096.495    -3347265.501 7  -2538852.53121        27.750           1.063
  21867815.440      970280.545 7    742366.42721        23.000           1.406
  23167118.542    -5615879.756 5  -4223463.14921        11.750           0.438
 91  6 25 20 27 14.9990000  0  3G13G 2G12
  20185994.065    -3379324.243 7  -2563833.36421        27.750           1.125
  21870406.737      983902.458 7    752980.87521        22.000           1.469
  23155048.573    -5679324.521 6  -4272900.60221        12.500           0.438
 91  6 25 20 27 29.9990000  0  3G13G 2G12
  20179925.503    -3411229.062 8  -2588694.25221        28.000           1.094
  21873012.159      997586.877 7    763644.03621        22.000           1.344
  23142981.573    -5742729.271 6  -4322306.85521        12.500           0.469
 91  6 25 20 27 44.9990000  0  3G13G 2G12
  20173882.948    -3442982.775 8  -2613437.39121        28.000           1.094
  21875626.198     1011330.975 7    774353.69421        20.750           1.281
  23130925.605    -5806096.756 6  -4371684.09421        13.250           0.469
 91  6 25 20 27 59.9990000  0  3G13G 2G12
  20167867.355    -3474587.665 8  -2638064.56521        28.250           1.156
  21878251.808     1025132.307 7    785107.94521        21.500           1.406
  23118873.237    -5869428.991 6  -4421033.85821        13.750           0.500
 91  6 25 20 28 14.9990000  0  3G13G 2G12
  20161882.230    -3506045.579 8  -2662577.21521        28.000           1.250
  21880892.105     1038988.801 7    795905.17921        22.750           1.406
  23106828.980    -5932727.484 6  -4470357.32621        13.750           0.438
 91  6 25 20 28 29.9990000  0  3G13G 2G12
  20155923.073    -3537354.714 7  -2686973.93221        27.750           1.281
  21883540.612     1052902.537 7    806747.02821        22.250           1.438
  23094792.581    -5995989.977 6  -4519652.76821        13.500           0.438
 91  6 25 20 28 44.9990000  0  3G13G 2G12
  20149994.214    -3568510.122 8  -2711250.86721        28.000           1.219
  21886202.425     1066878.473 7    817637.33521        22.750           1.438
  23082757.237    -6059211.162 6  -4568915.97221        13.000           0.500
 91  6 25 20 28 59.9990000  0  3G13G 2G12
  20144095.730    -3599515.987 8  -2735411.27121        28.250           1.250
  21888870.300     1080912.102 7    828572.60121        21.750           1.375
  23070737.253    -6122395.222 6  -4618150.28021        13.250           0.375
 91  6 25 20 29 14.9990000  0  3G13G 2G12
  20138224.128    -3630368.890 8  -2759452.47921        28.250           1.125
  21891551.480     1095006.915 7    839555.54121        21.750           1.375
  23058717.558    -6185538.506 6  -4667352.80221        13.750           0.313
 91  6 25 20 29 29.9990000  0  3G13G 2G12
  20132380.776    -3661074.760 8  -2783379.12621        28.000           1.188
  21894243.972     1109157.166 7    850581.68521        21.250           1.281
  23046714.276    -6248646.561 6  -4716527.89121        14.000           0.375
 91  6 25 20 29 44.9990000  0  3G13G 2G12
  20126564.487    -3691634.138 7  -2807191.61521        27.250           1.188
  21896951.495     1123362.211 7    861650.51521        23.500           1.250
  23034708.190    -6311719.557 6  -4765675.65521        13.500           0.375
 91  6 25 20 29 59.9990000  0  3G13G 2G12
  20120777.089    -3722042.591 7  -2830886.51021        27.500           1.281
  21899661.737     1137626.370 7    872765.41921        21.500           1.094
  23022712.909    -6374752.789 6  -4814792.43621        12.750           0.438
 91  6 25 20 30 14.9990000  0  3G13G 2G12
  20115021.776    -3752306.584 8  -2854468.83021        28.000           1.250
  21902382.323     1151943.320 7    883921.45721        20.750           1.125
  23010719.480    -6437752.382 6  -4863883.00121        12.750           0.375
 91  6 25 20 30 29.9990000  0  3G13G 2G12
  20109288.636    -3782426.143 7  -2877938.61021        27.250           1.250
  21905120.683     1166312.710 7    895118.34721        22.500           1.156
  22998744.753    -6500718.273 6  -4912947.29921        13.250           0.500
 91  6 25 20 30 44.9990000  0  3G13G 2G12
  20103584.706    -3812400.992 8  -2901295.62421        28.000           1.188
  21907866.105     1180734.914 7    906356.40121        22.000           1.219
  22986766.323    -6563649.934 6  -4961984.92821        13.500           0.594
 91  6 25 20 30 59.9990000  0  3G13G 2G12
  20097905.894    -3842224.899 7  -2924535.02421        27.250           1.281
  21910624.394     1195216.277 7    917640.54221        22.250           1.281
  22974798.612    -6626540.666 6  -5010990.66921        12.750           0.594
 91  6 25 20 31 14.9990000  0  3G13G 2G12
  20092262.901    -3871897.888 7  -2947656.82221        27.500           1.281
  21913387.550     1209756.700 7    928970.72021        22.500           1.313
  22962838.097    -6689390.223 5  -5059964.30821        11.750           0.500
 91  6 25 20 31 29.9990000  0  3G13G 2G12
  20086643.800    -3901430.494 8  -2970669.23021        28.000           1.281
  21916165.519     1224345.860 7    940338.85921        22.250           1.188
  22950886.612    -6752208.540 6  -5108913.59721        12.250           0.438
 91  6 25 20 31 44.9990000  0  3G13G 2G12
  20081050.534    -3930817.048 7  -2993567.84121        27.750           1.250
  21918952.073     1238989.246 7    951749.25921        21.250           1.344
  22938937.112    -6814989.836 6  -5157834.07421        13.500           0.500
 91  6 25 20 31 59.9990000  0  3G13G 2G12
  20075485.659    -3960061.462 7  -3016355.68521        27.750           1.219
  21921744.362     1253682.740 7    963198.70621        21.250           1.375
  22926995.839    -6877737.833 6  -5206728.61321        13.250           0.406
 91  6 25 20 32 14.9990000  0  3G13G 2G12
  20069947.800    -3989154.977 7  -3039025.94521        27.500           1.219
  21924556.331     1268435.404 7    974694.26221        22.250           1.375
  22915065.808    -6940443.324 6  -5255590.01721        13.000           0.563
 91  6 25 20 32 29.9990000  0  3G13G 2G12
  20064439.901    -4018096.864 7  -3061578.05421        27.250           1.156
  21927372.237     1283247.599 7    986236.19222        21.750           1.500
  22903138.456    -7003105.379 6  -5304417.54421        12.750           0.531
 91  6 25 20 32 44.9990000  0  3G13G 2G12
  20058962.675    -4046894.802 7  -3084017.99821        27.250           1.219
  21930206.683     1298111.793 7    997818.64021        23.250           1.344
  22891227.269    -7065731.291 6  -5353216.91921        14.000           0.563
 91  6 25 20 32 59.9990000  0  3G13G 2G12
  20053510.198    -4075543.775 7  -3106341.86021        27.250           1.250
  21933041.230     1313033.143 7   1009445.64021        23.000           1.281
  22879315.128    -7128315.788 6  -5401984.02221        14.250           0.531
 91  6 25 20 33 14.9990000  0  3G13G 2G12
  20048086.065    -4104043.610 7  -3128549.51721        27.000           1.063
  21935896.886     1328011.732 7   1021117.22321        24.500           1.250
  22867415.558    -7190858.493 6  -5450718.58021        14.000           0.563
 91  6 25 20 33 29.9990000  0  3G13G 2G12
  20042690.206    -4132398.068 7  -3150643.88921        27.250           1.250
  21938754.050     1343043.998 7   1032830.65721        23.000           1.219
  22855518.495    -7253362.785 6  -5499423.21221        13.750           0.594
 91  6 25 20 33 44.9990000  0  3G13G 2G12
  20037321.558    -4160605.257 7  -3172623.50921        27.000           1.094
  21941621.823     1358131.735 7   1044587.30321        22.250           1.094
  22843632.034    -7315826.475 6  -5548096.18421        13.500           0.656
 91  6 25 20 33 59.9990000  0  3G13G 2G12
  20031983.698    -4188661.992 7  -3194485.89321        27.250           1.156
  21944505.987     1373277.988 7   1056389.54321        22.500           1.125
  22831752.597    -7378246.096 6  -5596734.79421        13.750           0.656
 91  6 25 20 34 14.9990000  0  3G13G 2G12
  20026671.253    -4216574.614 7  -3216235.97821        27.250           1.219
  21947399.487     1388476.498 7   1068232.50221        23.250           1.219
  22819884.534    -7440627.449 6  -5645343.61021        13.750           0.594
 91  6 25 20 34 29.9990000  0  3G13G 2G12
  20021385.230    -4244347.319 7  -3237877.04021        27.500           1.156
  21950301.362     1403723.261 7   1080113.05321        23.000           1.188
  22808018.776    -7502974.422 6  -5693925.63021        12.750           0.531
 91  6 25 20 34 44.9990000  0  3G13G 2G12
  20016129.378    -4271975.750 7  -3259405.67921        27.500           1.219
  21953211.245     1419022.365 7   1092034.41421        22.750           1.094
  22796161.144    -7565282.629 6  -5742477.45321        12.250           0.563
 91  6 25 20 34 59.9990000  0  3G13G 2G12
  20010898.847    -4299462.975 7  -3280824.29621        27.500           1.313
  21956132.159     1434370.945 7   1103994.30821        22.000           1.125
  22784311.370    -7627554.600 6  -5791001.01921        13.000           0.500
 91  6 25 20 35 14.9990000  0  3G13G 2G12
  20005694.440    -4326803.453 7  -3302128.55521        27.500           1.219
  21959063.870     1449774.698 7   1115997.20121        22.750           1.250
  22772467.690    -7689784.266 6  -5839491.64721        13.750           0.531
 91  6 25 20 35 29.9990000  0  3G13G 2G12
  20000521.245    -4353999.848 7  -3323320.54521        27.750           1.156
  21962003.065     1465230.684 7   1128040.78221        21.750           1.156
  22760635.261    -7751974.265 6  -5887951.35721        15.250           0.531
 91  6 25 20 35 44.9990000  0  3G13G 2G12
  19995373.464    -4381051.310 7  -3344399.60321        27.500           1.250
  21964955.714     1480739.677 7   1140125.68721        21.250           1.188
  22748810.003    -7814123.366 6  -5936379.20221        15.750           0.531
 91  6 25 20 35 59.9990000  0  3G13G 2G12
  19990252.073    -4407959.491 7  -3365367.00721        26.750           1.313
  21967916.284     1496299.993 7   1152250.58021        21.500           1.188
  22736991.909    -7876232.950 6  -5984776.25021        15.500           0.625
 91  6 25 20 36 14.9990000  0  3G13G 2G12
  19985160.480    -4434723.626 8  -3386222.18221        28.000           1.250
  21970885.878     1511912.743 7   1164416.31521        21.000           1.344
  22725177.792    -7938301.739 6  -6033141.50921        15.000           0.625
 91  6 25 20 36 29.9990000  0  3G13G 2G12
  19980094.901    -4461342.626 8  -3406964.24821        28.000           1.250
  21973869.831     1527578.984 7   1176623.74321        21.500           1.125
  22713374.792    -8000328.471 6  -6081473.99721        14.250           0.719
 91  6 25 20 36 44.9990000  0  3G13G 2G12
  19975054.847    -4487816.951 7  -3427593.58521        27.750           1.188
  21976860.261     1543298.330 7   1188872.54221        21.500           1.188
  22701581.628    -8062313.154 6  -6129773.72021        13.750           0.719
 91  6 25 20 36 59.9990000  0  3G13G 2G12
  19970047.706    -4514140.990 8  -3448105.81221        28.000           1.188
  21979862.901     1559076.224 7   1201166.95621        21.750           1.156
  22689793.589    -8124249.903 6  -6178036.07421        14.000           0.625
 91  6 25 20 37 14.9990000  0  3G13G 2G12
  19965065.933    -4540322.544 7  -3468507.01921        27.250           1.156
  21982874.901     1574904.822 7   1213500.89421        22.000           1.219
  22678016.355    -8186146.106 6  -6226266.83821        14.750           0.719
 91  6 25 20 37 29.9990000  0  3G13G 2G12
  19960110.558    -4566356.544 7  -3488793.24621        27.000           1.156
  21985899.737     1590789.457 7   1225878.50021        22.500           1.156
  22666247.933    -8247996.294 6  -6274461.75521        15.000           0.531
 91  6 25 20 37 44.9990000  0  3G13G 2G12
  19955184.026    -4592245.731 7  -3508966.62821        27.500           1.094
  21988931.144     1606727.278 7   1238297.54221        21.750           1.281
  22654486.105    -8309803.033 6  -6322622.82921        14.750           0.563
 91  6 25 20 37 59.9990000  0  3G13G 2G12
  19950283.300    -4617998.599 7  -3529033.79521        27.250           1.156
  21991972.800     1622709.973 7   1250751.55921        21.750           1.250
  22642729.542    -8371574.246 6  -6370756.21621        14.000           0.563
 91  6 25 20 38 14.9990000  0  3G13G 2G12
  19945409.972    -4643606.965 7  -3548988.35821        27.250           1.156
  21995024.112     1638745.685 7   1263246.88521        21.500           1.219
  22630980.339    -8433301.514 6  -6418855.36021        14.250           0.531
 91  6 25 20 38 29.9990000  0  3G13G 2G12
  19940564.433    -4669074.800 7  -3568833.41621        27.750           1.125
  21998084.550     1654830.270 7   1275780.30121        20.250           1.281
  22619245.019    -8494988.579 6  -6466923.16921        15.250           0.625
 91  6 25 20 38 44.9990000  0  3G13G 2G12
  19935746.917    -4694394.078 7  -3588562.72721        27.500           1.156
  22001155.487     1670972.178 7   1288358.36221        21.000           1.188
  22607514.394    -8556626.785 6  -6514952.90321        15.750           0.688
 91  6 25 20 38 59.9990000  0  3G13G 2G12
  19930955.339    -4719572.760 7  -3608182.46621        27.000           1.094
  22004239.675     1687163.381 7   1300974.85421        21.000           1.344
  22595797.198    -8618223.523 6  -6562950.33821        15.750           0.688
 91  6 25 20 39 14.9990000  0  3G13G 2G12
  19926191.315    -4744608.975 7  -3627691.20021        27.250           1.125
  22007328.909     1703405.682 7   1313631.15121        21.750           1.125
  22584082.308    -8679776.914 6  -6610913.99421        14.750           0.563
 91  6 25 20 39 29.9990000  0  3G13G 2G12
  19921453.628    -4769500.035 7  -3647086.82221        27.500           1.094
  22010428.534     1719701.657 7   1326329.28621        20.000           1.094
  22572376.011    -8741284.061 6  -6658841.61521        14.500           0.656
 91  6 25 20 39 44.9990000  0  3G13G 2G12
  19916745.526    -4794244.261 8  -3666368.03421        28.250           1.094
  22013540.409     1736053.123 7   1339070.64721        20.500           1.188
  22560683.019    -8802742.799 6  -6706731.50521        14.750           0.625
 91  6 25 20 39 59.9990000  0  3G13G 2G12
  19912062.886    -4818847.814 8  -3685539.62121        28.000           1.000
  22016663.605     1752454.102 7   1351850.59621        20.250           1.281
  22548994.706    -8864158.725 6  -6754588.03921        15.000           0.625
 91  6 25 20 40 14.9990000  0  3G13G 2G12
  19907408.823    -4843310.874 8  -3704601.74021        28.500           1.125
  22019792.276     1768904.244 7   1364668.85221        20.250           1.313
  22537314.261    -8925531.954 6  -6802411.30421        14.500           0.750
 91  6 25 20 40 29.9990000  0  3G13G 2G12
  19902781.558    -4867631.529 8  -3723552.89621        28.750           1.031
  22022929.355     1785405.181 6   1377526.69121        19.000           1.125
  22525644.987    -8986860.303 6  -6850199.58521        15.000           0.656
 91  6 25 20 40 44.9990000  0  3G13G 2G12
  19898178.706    -4891807.504 8  -3742391.30921        28.250           1.094
  22026083.425     1801959.615 7   1390426.20421        20.750           1.188
  22513983.417    -9048140.955 6  -6897950.70821        15.250           0.719
 91  6 25 20 40 59.9990000  0  3G13G 2G12
  19893606.206    -4915840.006 8  -3761117.92921        28.500           1.094
  22029243.144     1818566.773 7   1403366.81221        20.500           1.250
  22502331.784    -9109374.400 6  -6945665.05221        15.500           0.750
 91  6 25 20 41 14.9990000  0  3G13G 2G12
  19889059.300    -4939733.819 8  -3779736.48121        28.500           1.188
  22032412.847     1835221.673 7   1416344.61721        20.500           1.219
  22490688.300    -9170565.209 6  -6993346.16921        16.000           0.781
 91  6 25 20 41 29.9990000  0  3G13G 2G12
  19884540.808    -4963487.631 8  -3798245.94021        28.750           1.125
  22035591.769     1851925.474 6   1429360.53521        19.750           1.219
  22479051.003    -9231711.872 6  -7040992.88421        15.750           0.688
 91  6 25 20 41 44.9990000  0  3G13G 2G12
  19880045.550    -4987097.504 8  -3816643.23821        28.250           1.063
  22038778.253     1868682.375 6   1442417.83021        19.750           1.219
  22467426.073    -9292809.929 6  -7088601.72321        15.500           0.781
 91  6 25 20 41 59.9990000  0  3G13G 2G12
  19875580.159    -5010565.134 8  -3834929.69221        28.500           1.031
  22041977.120     1885490.609 7   1455515.12221        20.000           1.156
  22455805.808    -9353860.534 6  -7136173.59221        15.500           0.656
 91  6 25 20 42 14.9990000  0  3G13G 2G12
  19871140.612    -5033892.668 8  -3853106.98621        28.500           1.094
  22045183.839     1902347.893 6   1468650.63421        19.000           1.125
  22444198.972    -9414865.896 6  -7183710.20421        15.500           0.750
 91  6 25 20 42 29.9990000  0  3G13G 2G12
  19866728.722    -5057082.941 8  -3871177.33121        28.750           1.094
  22048403.745     1919251.714 7   1481822.40221        20.500           1.094
  22432596.112    -9475828.247 6  -7231213.30921        15.500           0.531
 91  6 25 20 42 44.9990000  0  3G13G 2G12
  19862343.120    -5080127.236 8  -3889133.91421        28.000           1.063
  22051632.722     1936210.838 7   1495037.26121        21.750           1.219
  22421007.237    -9536738.410 6  -7278675.75321        15.750           0.688
 91  6 25 20 42 59.9990000  0  3G13G 2G12
  19857984.878    -5103030.664 8  -3906980.74621        28.250           1.000
  22054868.651     1953219.856 7   1508290.99821        21.250           1.156
  22409423.847    -9597601.327 6  -7326101.37721        16.250           0.813
 91  6 25 20 43 14.9990000  0  3G13G 2G12
  19853654.878    -5125790.256 8  -3924715.48221        28.000           1.156
  22058116.355     1970281.940 7   1521586.09421        21.250           1.094
  22397853.222    -9658413.550 6  -7373487.48621        16.500           0.719
 91  6 25 20 43 29.9990000  0  3G13G 2G12
  19849348.987    -5148409.649 8  -3942340.98021        28.250           1.063
  22061369.151     1987393.564 7   1534919.79521        20.250           1.063
  22386289.050    -9719178.217 6  -7420836.54521        16.500           0.688
 91  6 25 20 43 44.9990000  0  3G13G 2G12
  19845071.315    -5170888.367 8  -3959856.86421        28.750           1.156
  22064636.542     2004555.446 6   1548292.65121        19.750           1.000
  22374736.362    -9779894.363 6  -7468147.80521        17.000           0.563
 91  6 25 20 43 59.9990000  0  3G13G 2G12
  19840822.995    -5193225.250 8  -3977262.22021        29.250           1.063
  22067908.753     2021768.777 6   1561705.60521        19.000           1.156
  22363190.386    -9840560.466 6  -7515420.08321        16.750           0.781
 91  6 25 20 44 14.9990000  0  3G13G 2G12
  19836598.370    -5215417.897 8  -3994555.18721        28.750           1.125
  22071196.394     2039036.006 6   1575160.54221        19.500           1.094
  22351655.706    -9901173.809 6  -7562651.22221        16.750           0.813
 91  6 25 20 44 29.9990000  0  3G13G 2G12
  19832401.933    -5237466.413 8  -4011735.84921        28.750           1.063
  22074493.401     2056357.150 6   1588657.49821        18.750           1.063
  22340135.440    -9961733.889 6  -7609840.86221        17.750           0.688
 91  6 25 20 44 44.9990000  0  3G13G 2G12
  19828235.198    -5259371.414 8  -4028804.67721        29.250           1.125
  22077798.651     2073731.724 6   1602196.08121        19.500           1.063
  22328616.120   -10022241.121 6  -7656989.34021        16.500           0.781
 91  6 25 20 44 59.9990000  0  3G13G 2G12
  19824089.730    -5281139.106 8  -4045766.51221        29.000           1.031
  22081112.690     2091153.460 6   1615771.42921        19.000           0.969
  22317113.870   -10082701.412 6  -7704101.22221        16.250           0.688
 91  6 25 20 45 14.9990000  0  3G13G 2G12
  19819975.409    -5302770.716 8  -4062622.31121        28.500           1.031
  22084439.417     2108621.211 6   1629382.61021        19.750           1.000
  22305614.761   -10143115.459 6  -7751177.07821        16.500           0.656
 91  6 25 20 45 29.9980000  0  3G13G 2G12
  19815885.373    -5324258.657 8  -4079366.15721        28.750           1.063
  22087772.076     2126139.939 7   1643033.52021        20.750           0.969
  22294131.506   -10203472.758 6  -7798208.71321        17.000           0.688
 91  6 25 20 45 44.9980000  0  3G13G 2G12
  19811823.600    -5345607.448 8  -4096001.57121        29.000           1.094
  22091116.600     2143710.129 6   1656724.54821        19.750           0.906
  22282653.264   -10263782.727 6  -7845203.48021        17.000           0.844
 91  6 25 20 45 59.9980000  0  3G13G 2G12
  19807789.561    -5366801.580 8  -4112516.47821        29.000           0.969
  22094469.373     2161344.990 6   1670465.96021        19.250           0.875
  22271189.607   -10324026.820 6  -7892146.89121        17.250           0.750
 91  6 25 20 46 14.9980000  0  3G13G 2G12
  19803784.334    -5387856.734 8  -4128923.09021        28.500           1.063
  22097837.600     2179029.116 6   1684245.76121        19.500           0.969
  22259736.647   -10384220.019 6  -7939050.66021        17.750           0.750
 91  6 25 20 46 29.9980000  0  3G13G 2G12
  19799807.154    -5408763.368 8  -4145213.96821        29.000           1.063
  22101213.123     2196771.956 6   1698071.31021        19.250           0.938
  22248293.834   -10444352.631 6  -7985907.22621        17.500           0.813
 91  6 25 20 46 44.9980000  0  3G13G 2G12
  19795854.951    -5429526.280 8  -4161392.85821        29.250           1.031
  22104598.490     2214568.869 6   1711938.99921        18.000           0.813
  22236860.553   -10504428.885 6  -8032719.87021        17.000           0.875
 91  6 25 20 46 59.9980000  0  3G13G 2G12
  19791930.764    -5450144.507 8  -4177459.00821        28.750           1.031
  22107997.881     2232420.861 7   1725849.60321        20.000           0.781
  22225438.201   -10564447.447 6  -8079487.54621        16.250           0.781
 91  6 25 20 47 14.9980000  0  3G13G 2G12
  19788033.725    -5470620.293 8  -4193414.17221        28.750           0.969
  22111403.061     2250325.688 6   1739801.38721        18.750           0.844
  22214028.647   -10624410.209 6  -8126211.73921        17.500           0.875
 91  6 25 20 47 29.9980000  0  3G13G 2G12
  19784165.975    -5490951.835 8  -4209256.93221        28.750           0.938
  22114820.772     2268285.298 6   1753795.83021        19.000           0.938
  22202629.811   -10684314.795 6  -8172890.61021        18.000           0.844
 91  6 25 20 47 44.9980000  0  3G13G 2G12
  19780323.615    -5511138.572 8  -4224986.85121        28.500           0.938
  22118248.826     2286300.245 6   1767833.41821        19.000           0.875
  22191243.209   -10744160.360 6  -8219523.49621        17.500           0.781
 91  6 25 20 47 59.9980000  0  3G13G 2G12
  19776511.022    -5531183.967 8  -4240606.63221        29.000           0.938
  22121686.170     2304367.120 6   1781911.45921        18.750           0.938
  22179863.600   -10803949.864 6  -8266112.69221        17.250           0.719
 91  6 25 20 48 14.9980000  0  3G13G 2G12
  19772721.553    -5551089.127 8  -4256117.14821        29.000           1.000
  22125133.662     2322484.949 6   1796029.19721        18.750           0.969
  22168495.412   -10863684.080 6  -8312658.80321        17.250           0.750
 91  6 25 20 48 29.9980000  0  3G13G 2G12
  19768960.428    -5570847.156 8  -4271513.00321        28.250           0.969
  22128593.311     2340660.593 6   1810191.99521        19.000           0.969
  22157142.498   -10923355.722 6  -8359156.17221        17.750           0.938
 91  6 25 20 48 44.9980000  0  3G13G 2G12
  19765229.436    -5590466.172 8  -4286800.55321        29.000           1.031
  22132062.873     2358886.299 6   1824393.81321        18.750           1.000
  22145793.311   -10982972.382 6  -8405610.68421        17.500           0.844
 91  6 25 20 48 59.9980000  0  3G13G 2G12
  19761522.889    -5609943.484 8  -4301977.68221        29.000           0.969
  22135543.529     2377164.684 6   1838636.65921        19.250           1.000
  22134463.834   -11042530.958 6  -8452019.93221        17.250           0.781
 91  6 25 20 49 14.9980000  0  3G13G 2G12
  19757843.764    -5629279.248 8  -4317044.50421        29.000           1.094
  22139030.545     2395495.799 6   1852920.61221        19.000           0.938
  22123139.756   -11102031.079 6  -8498383.64121        17.000           0.906
 91  6 25 20 49 29.9980000  0  3G13G 2G12
  19754189.920    -5648473.293 8  -4332000.90221        28.750           1.031
  22142530.326     2413879.889 6   1867245.83221        19.500           0.969
  22111826.717   -11161472.273 6  -8544701.42721        16.250           0.844
 91  6 25 20 49 44.9980000  0  3G13G 2G12
  19750563.607    -5667526.241 8  -4346847.36521        28.750           0.938
  22146038.811     2432316.474 6   1881611.95721        19.250           0.844
  22100529.123   -11220854.632 6  -8590973.37221        17.500           0.688
 91  6 25 20 49 59.9980000  0  3G13G 2G12
  19746965.061    -5686439.097 8  -4361584.64821        29.000           0.906
  22149555.529     2450804.416 6   1896018.10321        18.750           0.906
  22089240.240   -11280178.808 6  -8637199.98121        17.750           0.688
 91  6 25 20 50 14.9980000  0  3G13G 2G12
  19743393.959    -5705208.021 8  -4376209.78521        28.750           1.094
  22153083.397     2469347.652 6   1910467.33721        19.250           0.969
  22077961.756   -11339440.585 6  -8683377.98321        17.750           0.688
 91  6 25 20 50 29.9980000  0  3G13G 2G12
  19739849.701    -5723832.406 8  -4390722.29721        28.750           1.125
  22156623.045     2487947.136 6   1924960.39221        19.000           0.875
  22066696.045   -11398638.751 6  -8729506.41321        17.500           0.813
 91  6 25 20 50 44.9980000  0  3G13G 2G12
  19736332.811    -5742313.613 8  -4405123.23321        29.000           1.000
  22160171.826     2506601.179 6   1939495.96421        19.000           0.938
  22055446.068   -11457774.362 6  -8775586.07921        17.250           0.813
 91  6 25 20 50 59.9980000  0  3G13G 2G12
  19732842.076    -5760653.467 8  -4419414.02721        28.500           1.063
  22163731.170     2525308.343 6   1954072.93621        17.750           0.906
  22044204.834   -11516848.775 6  -8821618.06021        18.250           0.844
 91  6 25 20 51 14.9980000  0  3G13G 2G12
  19729377.975    -5778853.106 8  -4433595.56721        28.500           0.875
  22167301.529     2544067.596 6   1968690.49121        19.000           0.938
  22032972.162   -11575862.595 6  -8867602.83621        17.500           0.969
 91  6 25 20 51 29.9980000  0  3G13G 2G12
  19725942.631    -5796916.749 8  -4447671.13021        28.750           1.031
  22170882.857     2562874.718 6   1983345.34221        19.250           0.938
  22021754.287   -11634819.551 6  -8913543.29321        17.750           0.875
 91  6 25 20 51 44.9980000  0  3G13G 2G12
  19722531.037    -5814840.185 8  -4461637.44221        28.750           0.969
  22174469.592     2581733.933 6   1998040.78721        19.000           0.969
  22010545.342   -11693715.049 6  -8959435.87121        18.500           0.906
 91  6 25 20 51 59.9980000  0  3G13G 2G12
  19719147.490    -5832625.127 8  -4475495.84121        29.250           1.000
  22178069.381     2600643.696 6   2012775.63921        18.250           0.938
  21999348.326   -11752550.453 6  -9005281.62621        17.500           0.969
 91  6 25 20 52 14.9980000  0  3G13G 2G12
  19715789.764    -5850266.257 8  -4489242.17121        28.750           1.031
  22181677.279     2619609.382 6   2027554.03321        18.500           0.875
  21988165.662   -11811319.935 6  -9051076.00121        17.750           0.938
 91  6 25 20 52 29.9980000  0  3G13G 2G12
  19712460.748    -5867770.200 8  -4502881.61221        29.000           0.969
  22185298.717     2638624.478 6   2042370.94021        19.250           1.000
  21976994.842   -11870029.744 6  -9096823.88021        18.000           0.875
 91  6 25 20 52 44.9980000  0  3G13G 2G12
  19709155.764    -5885135.210 8  -4516412.78121        29.000           0.906
  22188922.092     2657690.906 6   2057227.86221        17.250           0.969
  21965836.904   -11928677.584 6  -9142523.47921        19.250           0.875
 91  6 25 20 52 59.9980000  0  3G13G 2G12
  19705876.053    -5902362.338 8  -4529836.52021        29.000           0.938
  22192562.420     2676807.766 6   2072124.07421        18.000           1.000
  21954684.326   -11987264.008 6  -9188175.22121        18.500           0.938
 91  6 25 20 53 14.9980000  0  3G13G 2G12
  19702624.467    -5919453.439 8  -4543154.26021        29.000           0.969
  22196207.686     2695973.266 6   2087058.16621        18.250           0.750
  21943547.607   -12045790.534 6  -9233780.28721        18.000           0.875
 91  6 25 20 53 29.9980000  0  3G13G 2G12
  19699397.912    -5936408.310 8  -4556365.84721        28.000           0.938
  22199867.897     2715187.799 6   2102030.49721        19.250           0.844
  21932423.772   -12104256.369 6  -9279338.05221        18.750           0.938
 91  6 25 20 53 44.9980000  0  3G13G 2G12
  19696199.451    -5953223.628 8  -4569468.69221        28.750           1.094
  22203531.592     2734454.666 6   2117043.59421        18.000           1.000
  21921308.857   -12162657.787 6  -9324845.63321        19.000           1.000
 91  6 25 20 53 59.9980000  0  3G13G 2G12
  19693023.920    -5969901.430 8  -4582464.37521        28.500           1.031
  22207208.318     2753772.216 6   2132096.18921        18.250           0.875
  21910211.897   -12220996.239 6  -9370304.15021        19.250           1.094
 91  6 25 20 54 14.9980000  0  3G13G 2G12
  19689876.514    -5986446.342 8  -4595356.51821        29.250           1.031
  22210889.678     2773135.887 6   2147184.71321        17.250           1.000
  21899114.326   -12279275.918 6  -9415716.87221        17.750           0.938
 91  6 25 20 54 29.9980000  0  3G13G 2G12
  19686753.639    -6002862.384 8  -4608148.24421        28.750           1.031
  22214586.209     2792541.528 6   2162305.93821        19.000           0.781
  21888035.170   -12337500.651 6  -9461086.76821        18.250           0.969
 91  6 25 20 54 44.9980000  0  3G13G 2G12
  19683654.881    -6019141.610 8  -4620833.35021        28.750           1.000
  22218286.279     2811997.119 6   2177466.09721        18.000           0.969
  21876966.990   -12395661.907 6  -9506407.21321        19.500           0.938
 91  6 25 20 54 59.9980000  0  3G13G 2G12
  19680583.272    -6035285.657 8  -4633413.12921        28.750           1.000
  22222000.725     2831501.338 6   2192664.13921        18.000           0.844
  21865913.592   -12453760.775 6  -9551679.05121        18.500           1.125
 91  6 25 20 55 14.9980000  0  3G13G 2G12
  19677534.631    -6051292.698 8  -4645886.14121        28.750           0.969
  22225718.584     2851056.073 6   2207901.55521        17.000           0.813
  21854871.982   -12511795.048 6  -9596900.52921        18.750           1.063
 91  6 25 20 55 29.9980000  0  3G13G 2G12
  19674516.334    -6067167.253 8  -4658255.93121        28.500           1.031
  22229452.936     2870656.900 6   2223174.85621        18.500           0.906
  21843837.990   -12569768.912 6  -9642074.94921        19.000           1.094
 91  6 25 20 55 44.9980000  0  3G13G 2G12
  19671518.647    -6082912.799 8  -4670525.18721        28.500           0.969
  22233188.647     2890300.378 6   2238481.44121        17.000           0.875
  21832815.154   -12627685.092 6  -9687204.43321        19.000           1.000
 91  6 25 20 55 59.9980000  0  3G13G 2G12
  19668547.600    -6098522.917 8  -4682688.91221        29.000           1.031
  22236935.412     2909993.218 6   2253826.45321        16.500           0.750
  21821807.553   -12685536.681 6  -9732283.57921        18.250           1.125
 91  6 25 20 56 14.9980000  0  3G13G 2G12
  19665603.795    -6113996.837 8  -4694746.51921        28.500           1.000
  22240693.897     2929736.134 6   2269210.49621        18.250           0.844
  21810811.037   -12743322.617 6  -9777311.54321        18.500           1.063
 91  6 25 20 56 29.9980000  0  3G13G 2G12
  19662682.865    -6129331.524 8  -4706695.63021        28.250           0.969
  22244458.826     2949532.319 6   2284636.04221        17.000           0.813
  21799830.209   -12801039.261 6  -9822285.53521        19.250           1.000
 91  6 25 20 56 44.9980000  0  3G13G 2G12
  19659793.795    -6144533.044 8  -4718540.96221        29.250           0.969
  22248233.779     2969375.829 6   2300098.46821        16.250           0.781
  21788860.514   -12858692.244 6  -9867209.93121        19.500           0.969
 91  6 25 20 56 59.9980000  0  3G13G 2G12
  19656925.920    -6159599.922 8  -4730281.39321        28.750           1.063
  22252022.584     2989268.152 6   2315598.93121        17.500           0.719
  21777897.568   -12916279.697 6  -9912083.25121        18.750           1.188
 91  6 25 20 57 14.9980000  0  3G13G 2G12
  19654084.373    -6174531.940 8  -4741916.73021        28.500           0.938
  22255815.295     3009209.699 6   2331137.74321        16.250           0.781
  21766952.467   -12973800.849 6  -9956904.90321        19.250           1.125
 91  6 25 20 57 29.9980000  0  3G13G 2G12
  19651267.420    -6189330.614 8  -4753448.16921        28.500           0.969
  22259619.451     3029199.256 6   2346713.99121        16.000           0.719
  21756017.037   -13031256.677 6 -10001675.64421        19.500           1.125
 91  6 25 20 57 44.9980000  0  3G13G 2G12
  19648478.350    -6203992.909 8  -4764873.32721        29.000           1.094
  22263432.311     3049239.950 6   2362330.05221        16.500           0.719
  21745099.357   -13088643.731 6 -10046392.80821        19.250           1.031
 91  6 25 20 57 59.9980000  0  3G13G 2G12
  19645714.209    -6218520.108 8  -4776193.22421        28.250           1.000
  22267257.303     3069330.551 6   2377985.01321        16.500           0.625
  21734191.318   -13145962.889 6 -10091057.07321        19.750           1.000
 91  6 25 20 58 14.9980000  0  3G13G 2G12
  19642974.670    -6232914.509 8  -4787409.63621        28.250           1.000
  22271088.670     3089468.927 6   2393677.22821        17.000           0.719
  21723293.787   -13203215.909 6 -10135669.80021        19.500           1.156
 91  6 25 20 58 29.9980000  0  3G13G 2G12
  19640259.522    -6247176.699 8  -4798523.03121        28.500           1.000
  22274929.889     3109654.514 6   2409406.18521        17.250           0.656
  21712413.404   -13260402.889 6 -10180231.05421        19.500           1.063
 91  6 25 20 58 44.9980000  0  3G13G 2G12
  19637571.092    -6261304.123 8  -4809531.41521        28.500           0.875
  22278780.654     3129889.947 6   2425174.01521        16.250           0.781
  21701546.303   -13317520.779 6 -10224738.48321        19.750           0.969
 91  6 25 20 58 59.9980000  0  3G13G 2G12
  19634907.990    -6275298.581 8  -4820436.18921        28.250           0.938
  22282638.006     3150173.772 6   2440979.50821        17.000           0.813
  21690688.725   -13374570.792 6 -10269193.02121        18.750           1.094
 91  6 25 20 59 14.9980000  0  3G13G 2G12
  19632270.123    -6289162.577 8  -4831239.29321        28.750           0.969
  22286509.826     3170503.652 6   2456820.94921        16.500           0.844
  21679843.639   -13431554.871 6 -10313596.17121        19.250           1.094
 91  6 25 20 59 29.9980000  0  3G13G 2G12
  19629657.615    -6302891.478 8  -4841937.14421        28.500           1.000
  22290384.490     3190883.963 6   2472701.63021        16.000           0.938
  21669012.732   -13488468.227 6 -10357944.22021        19.000           1.219
 91  6 25 20 59 44.9980000  0  3G13G 2G12
  19627069.631    -6316487.766 8  -4852531.64621        28.250           0.938
  22294273.529     3211312.400 6   2488619.85621        16.000           0.875
  21658195.857   -13545312.815 6 -10402238.67421        19.750           1.125
 91  6 25 20 59 59.9980000  0  3G13G 2G12
  19624507.818    -6329953.540 8  -4863024.46221        29.000           0.906
  22298171.459     3231787.080 6   2504574.08521        16.500           0.719
  21647393.850   -13602090.131 7 -10446480.72821        20.250           1.063
 91  6 25 21  0 14.9980000  0  3G13G 2G12
  19621972.225    -6343279.510 8  -4873408.32421        28.750           0.938
  22302079.232     3252317.459 6   2520571.73721        16.000           0.906
  21636604.920   -13658790.401 7 -10490662.74021        20.000           1.125
 91  6 25 21  0 29.9980000  0  3G13G 2G12
  19619463.334    -6356471.275 8  -4883687.62621        29.000           0.969
  22305992.959     3272897.931 6   2536608.40121        15.750           0.656
  21625828.076   -13715418.806 7 -10534788.74421        20.000           1.156
 91  6 25 21  0 44.9980000  0  3G13G 2G12
  19616976.147    -6369529.593 8  -4893862.93921        28.500           1.031
  22309918.522     3293528.214 6   2552683.89221        17.250           0.750
  21615065.178   -13771975.450 6 -10578858.83521        19.250           1.188
 91  6 25 21  0 59.9980000  0  3G13G 2G12
  19614517.420    -6382458.404 8  -4903937.33421        29.000           1.000
  22313852.857     3314204.322 6   2568795.09421        15.500           0.656
  21604314.787   -13828463.706 6 -10622875.63621        19.750           1.125
 91  6 25 21  1 14.9980000  0  3G13G 2G12
  19612082.834    -6395249.378 8  -4913904.32821        29.000           0.938
  22317799.412     3334934.839 6   2584948.67321        16.000           0.781
  21593582.904   -13884874.757 7 -10666832.28721        20.750           1.219
 91  6 25 21  1 29.9980000  0  3G13G 2G12
  19609674.482    -6407909.892 8  -4923769.65621        29.250           1.063
  22321752.092     3355712.680 6   2601139.14521        15.750           0.594
  21582857.139   -13941215.377 6 -10710734.04321        19.750           1.250
 91  6 25 21  1 44.9980000  0  3G13G 2G12
  19607287.459    -6420441.404 8  -4933534.46821        29.000           0.906
  22325716.397     3376536.254 6   2617365.26321        15.750           0.656
  21572152.178   -13997486.653 7 -10754581.76321        20.500           1.250
 91  6 25 21  1 59.9980000  0  3G13G 2G12
  19604931.779    -6432833.671 8  -4943190.78321        29.250           0.969
  22329686.115     3397415.766 6   2633634.93021        15.500           0.656
  21561459.381   -14053678.119 7 -10798367.30221        20.500           1.188
 91  6 25 21  2 14.9980000  0  3G13G 2G12
  19602597.225    -6445091.263 8  -4952742.15021        29.000           0.938
  22333673.342     3418347.093 6   2649945.01721        16.750           0.656
  21550779.459   -14109793.638 7 -10842093.65421        20.750           1.219
 91  6 25 21  2 29.9980000  0  3G13G 2G12
  19600293.334    -6457208.439 8  -4962184.10921        29.250           1.031
  22337665.717     3439336.064 6   2666300.00621        16.000           0.625
  21540118.123   -14165826.902 7 -10885755.92621        21.000           1.125
 91  6 25 21  2 44.9980000  0  3G13G 2G12
  19598010.576    -6469191.601 8  -4971521.63121        28.500           0.906
  22341671.428     3460376.189 6   2682694.83721        17.250           0.656
  21529469.131   -14221783.955 7 -10929358.80321        20.250           1.250
 91  6 25 21  2 59.9980000  0  3G13G 2G12
  19595755.061    -6481042.868 7  -4980756.38221        27.750           0.906
  22345683.631     3481465.523 6   2699128.03421        16.000           0.531
  21518833.928   -14277666.491 7 -10972903.61021        20.500           1.156
 91  6 25 21  3 14.9980000  0  3G13G 2G12
  19593525.147    -6492762.883 8  -4989888.86121        28.250           0.969
  22349705.154     3502603.766 6   2715599.32321        15.750           0.750
  21508214.693   -14333474.470 7 -11016390.32621        21.750           1.281
 91  6 25 21  3 29.9980000  0  3G13G 2G12
  19591321.217    -6504346.304 8  -4998914.90321        28.750           1.031
  22353740.084     3523796.210 6   2732112.85321        15.250           0.656
  21497606.264   -14389202.118 7 -11059814.45921        20.500           1.219
 91  6 25 21  3 44.9980000  0  3G13G 2G12
  19589146.092    -6515795.588 8  -5007836.42521        29.250           0.969
  22357781.857     3545040.640 6   2748666.88621        16.000           0.625
  21487021.615   -14444851.298 7 -11103177.43721        20.500           1.313
 91  6 25 21  3 59.9980000  0  3G13G 2G12
  19586991.443    -6527114.766 8  -5016656.55521        29.000           1.031
  22361834.826     3566333.238 6   2765258.46421        16.250           0.750
  21476443.998   -14500425.357 7 -11146481.87121        21.250           1.219
 91  6 25 21  4 14.9980000  0  3G13G 2G12
  19584860.600    -6538302.946 8  -5025374.61921        28.750           1.000
  22365894.873     3587675.122 6   2781888.44521        15.500           0.750
  21465885.029   -14555923.037 7 -11189726.80221        21.500           1.094
 91  6 25 21  4 29.9980000  0  3G13G 2G12
  19582758.068    -6549356.247 8  -5033987.57621        28.750           0.938
  22369966.201     3609070.428 6   2798560.03221        16.250           0.594
  21455341.147   -14611339.998 7 -11232908.83821        21.750           1.188
 91  6 25 21  4 44.9980000  0  3G13G 2G12
  19580678.803    -6560280.706 8  -5042500.14221        28.750           1.000
  22374046.647     3630513.168 6   2815268.62521        16.500           0.688
  21444805.928   -14666681.732 7 -11276032.25321        21.000           1.156
 91  6 25 21  4 59.9980000  0  3G13G 2G12
  19578625.326    -6571074.822 8  -5050911.14121        29.000           1.063
  22378138.045     3652004.640 6   2832015.16421        16.500           0.688
  21434292.389   -14721946.365 7 -11319095.58321        20.750           1.281
 91  6 25 21  5 14.9980000  0  3G13G 2G12
  19576594.068    -6581740.402 8  -5059221.98221        28.500           1.094
  22382234.686     3673543.409 6   2848798.54521        16.000           0.563
  21423788.592   -14777135.009 7 -11362099.69821        21.250           1.219
 91  6 25 21  5 29.9980000  0  3G13G 2G12
  19574589.029    -6592275.796 8  -5067431.38221        28.250           1.094
  22386345.436     3695131.009 6   2865619.97921        17.500           0.563
  21413302.928   -14832245.640 7 -11405043.03821        21.750           1.219
 91  6 25 21  5 44.9980000  0  3G13G 2G12
  19572607.654    -6602683.988 8  -5075541.66021        28.500           1.031
  22390460.029     3716765.008 6   2882477.60521        16.750           0.625
  21402829.779   -14887280.574 7 -11447927.39121        21.250           1.250
 91  6 25 21  5 59.9980000  0  3G13G 2G12
  19570653.475    -6612961.023 8  -5083549.73321        29.000           0.875
  22394587.803     3738449.384 6   2899374.46521        17.000           0.688
  21392369.865   -14942235.366 7 -11490749.27921        20.500           1.281
 91  6 25 21  6 14.9980000  0  3G13G 2G12
  19568722.889    -6623110.100 8  -5091458.10921        29.500           1.063
  22398723.428     3760181.134 6   2916308.20721        16.000           0.500
  21381927.693   -14997112.643 7 -11533510.77521        21.500           1.375
 91  6 25 21  6 29.9980000  0  3G13G 2G12
  19566817.670    -6633126.303 8  -5099262.93721        28.750           1.031
  22402869.123     3781965.485 6   2933282.99421        16.500           0.656
  21371500.318   -15051906.943 7 -11576207.62121        21.250           1.250
 91  6 25 21  6 44.9980000  0  3G13G 2G12
  19564933.670    -6643012.299 8  -5106966.31921        28.500           1.000
  22407021.162     3803799.545 6   2950296.49221        15.250           0.656
  21361090.115   -15106620.598 7 -11618841.61521        21.500           1.281
 91  6 25 21  6 59.9980000  0  3G13G 2G12
  19563076.404    -6652772.807 8  -5114571.91021        28.500           0.969
  22411188.381     3825678.962 6   2967345.30221        16.250           0.594
  21350694.443   -15161257.708 7 -11661415.96621        22.000           1.313
 91  6 25 21  7 14.9980000  0  3G13G 2G12
  19561244.147    -6662401.314 8  -5122074.63521        29.000           1.031
  22415360.186     3847610.400 6   2984434.65521        15.500           0.594
  21340310.584   -15215811.286 7 -11703925.23321        22.000           1.281
 91  6 25 21  7 29.9980000  0  3G13G 2G12
  19559438.654    -6671904.619 8  -5129479.80821        29.250           1.000
  22419542.217     3869587.161 6   3001559.34321        16.000           0.594
  21329943.287   -15270287.493 7 -11746374.21521        21.500           1.344
 91  6 25 21  7 44.9980000  0  3G13G 2G12
  19557653.162    -6681282.755 8  -5136787.44921        29.250           1.000
  22423732.936     3891609.136 6   3018719.25221        15.750           0.719
  21319592.115   -15324685.950 7 -11788762.61221        21.750           1.281
 91  6 25 21  7 59.9980000  0  3G13G 2G12
  19555892.256    -6690533.513 8  -5143995.82521        29.500           0.969
  22427932.795     3913678.999 6   3035916.46221        15.500           0.563
  21309258.514   -15379003.812 7 -11831088.20521        22.000           1.406
 91  6 25 21  8 14.9980000  0  3G13G 2G12
  19554154.881    -6699661.562 8  -5151108.60021        29.500           1.000
  22432138.732     3935792.449 6   3053147.67721        14.750           0.531
  21298935.404   -15433245.013 7 -11873354.05421        21.750           1.281
 91  6 25 21  8 29.9980000  0  3G13G 2G12
  19552443.709    -6708661.390 8  -5158121.45421        30.500           1.094
  22436357.889     3957954.874 6   3070417.04121        14.750           0.563
  21288629.561   -15487403.893 7 -11915555.76321        21.000           1.344
 91  6 25 21  8 44.9970000  0  3G13G 2G12
  19550754.915    -6717537.819 8  -5165038.14921        30.000           0.938
  22440584.743     3980159.593 6   3087719.34921        15.500           0.531
  21278336.446   -15541481.549 7 -11957694.17821        20.250           1.219
 91  6 25 21  8 59.9970000  0  3G13G 2G12
  19549087.704    -6726290.447 8  -5171858.38121        29.500           0.906
  22444819.196     4002411.277 6   3105058.29721        15.250           0.625
  21268061.571   -15595483.093 7 -11999773.28821        21.250           1.344
 91  6 25 21  9 14.9970000  0  3G13G 2G12
  19547447.735    -6734913.118 8  -5178577.34921        29.500           1.031
  22449060.438     4024714.259 6   3122437.17221        15.500           0.500
  21257803.251   -15649398.808 7 -12041785.52121        21.250           1.344
 91  6 25 21  9 29.9970000  0  3G13G 2G12
  19545832.071    -6743408.059 8  -5185196.78421        30.000           0.969
  22453315.681     4047066.251 6   3139854.25521        14.500           0.563
  21247558.845   -15703230.553 7 -12083732.32521        21.500           1.250
 91  6 25 21  9 44.9970000  0  3G13G 2G12
  19544237.556    -6751778.481 8  -5191719.19021        30.000           1.063
  22457575.978     4069464.257 6   3157307.14321        13.750           0.469
  21237329.845   -15756980.853 7 -12125615.66121        21.500           1.250
 91  6 25 21  9 59.9970000  0  3G13G 2G12
  19542668.048    -6760022.993 8  -5198143.49221        29.250           1.031
  22461847.563     4091910.039 6   3174797.30421        15.500           0.469
  21227116.892   -15810647.628 7 -12167433.90722        21.750           1.500
 91  6 25 21 10 14.9970000  0  3G13G 2G12
  19541124.087    -6768145.633 8  -5204472.82921        29.250           1.000
  22466131.040     4114399.866 6   3192321.79721        14.000           0.594
  21216918.985   -15864234.480 7 -12209189.87921        22.000           1.375
 91  6 25 21 10 29.9970000  0  3G13G 2G12
  19539601.376    -6776144.040 8  -5210705.35521        29.500           0.938
  22470414.220     4136936.024 6   3209882.33921        13.750           0.563
  21206740.368   -15917738.601 7 -12250881.38821        22.750           1.313
 91  6 25 21 10 44.9970000  0  3G13G 2G12
  19538103.501    -6784017.827 8  -5216840.77521        29.250           1.031
  22474717.595     4159518.787 6   3227479.23121        15.500           0.688
  21196573.532   -15971159.162 7 -12292507.78721        22.250           1.313
 91  6 25 21 10 59.9970000  0  3G13G 2G12
  19536628.415    -6791763.077 8  -5222876.03721        29.750           0.969
  22479018.985     4182152.223 6   3245115.62121        13.500           0.719
  21186426.595   -16024491.691 7 -12334065.59221        23.000           1.375
 91  6 25 21 11 14.9970000  0  3G13G 2G12
  19535179.017    -6799384.214 8  -5228814.58621        29.000           0.906
  22483338.212     4204832.324 6   3262788.32621        14.250           0.656
  21176293.040   -16077739.933 7 -12375557.72222        23.500           1.500
 91  6 25 21 11 29.9970000  0  3G13G 2G12
  19533750.157    -6806881.175 8  -5234656.37921        28.500           1.000
  22487661.478     4227559.397 6   3280497.67321        14.500           0.594
  21166174.603   -16130903.356 7 -12416983.74122        23.250           1.500
 91  6 25 21 11 44.9970000  0  3G13G 2G12
  19532347.032    -6814255.792 8  -5240402.83821        28.750           0.969
  22491996.665     4250331.824 6   3298242.37821        13.750           0.813
  21156073.431   -16183983.200 7 -12458344.64121        23.250           1.438
 91  6 25 21 11 59.9970000  0  3G13G 2G12
  19530970.228    -6821501.799 8  -5246049.07821        29.500           0.938
  22496340.767     4273156.007 6   3316027.34321        15.250           0.563
  21145992.915   -16236972.598 7 -12499635.06821        23.250           1.438
 91  6 25 21 12 14.9970000  0  3G13G 2G12
  19529613.860    -6828627.209 8  -5251601.34421        29.500           0.938
  22500693.204     4296023.930 6   3333846.47321        15.000           0.594
  21135924.587   -16289879.077 7 -12540860.88521        23.250           1.438
 91  6 25 21 12 29.9970000  0  3G13G 2G12
  19528281.071    -6835631.068 8  -5257058.91321        29.000           1.063
  22505048.079     4318936.961 6   3351700.71421        13.250           0.719
  21125871.571   -16342701.135 7 -12582020.91121        23.250           1.406
 91  6 25 21 12 44.9970000  0  3G13G 2G12
  19526973.032    -6842509.095 8  -5262418.41621        28.500           1.063
  22509422.478     4341899.254 6   3369593.32721        14.500           0.531
  21115835.634   -16395434.078 7 -12623111.50821        23.750           1.469
 91  6 25 21 12 59.9970000  0  3G13G 2G12
  19525687.001    -6849265.882 8  -5267683.45221        28.500           0.969
  22513800.962     4364906.627 6   3387521.06121        14.250           0.656
  21105818.259   -16448081.743 7 -12664135.64821        23.500           1.375
 91  6 25 21 13 14.9970000  0  3G13G 2G12
  19524423.774    -6855897.943 8  -5272851.29221        28.500           0.969
  22518189.501     4387962.637 6   3405486.72821        15.500           0.469
  21095815.228   -16500640.135 7 -12705090.21421        22.500           1.469
 91  6 25 21 13 29.9970000  0  3G13G 2G12
  19523183.001    -6862415.924 8  -5277930.23921        28.750           0.906
  22522579.259     4411056.871 6   3423482.19321        12.750           0.625
  21085830.892   -16553119.458 7 -12745983.17721        23.500           1.406
 91  6 25 21 13 44.9970000  0  3G13G 2G12
  19521970.485    -6868810.215 8  -5282912.80821        29.250           0.938
  22526985.196     4434199.017 6   3441514.94321        13.250           0.594
  21075860.978   -16605509.611 7 -12786806.66422        23.500           1.500
 91  6 25 21 13 59.9970000  0  3G13G 2G12
  19520772.384    -6875084.488 8  -5287801.85921        28.500           0.938
  22531398.946     4457385.490 6   3459582.26021        14.250           0.563
  21065908.876   -16657813.627 7 -12827563.01822        23.750           1.719
 91  6 25 21 14 14.9970000  0  3G13G 2G12
  19519604.157    -6881233.084 8  -5292592.98021        28.750           1.000
  22535821.978     4480622.182 6   3477688.70221        13.750           0.500
  21055971.806   -16710025.319 7 -12868247.43022        23.750           1.594
 91  6 25 21 14 29.9970000  0  3G13G 2G12
  19518455.829    -6887264.002 8  -5297292.39921        28.500           1.000
  22540249.313     4503901.333 6   3495828.24421        14.750           0.500
  21046051.110   -16762152.113 7 -12908865.69922        23.250           1.500
 91  6 25 21 14 44.9970000  0  3G13G 2G12
  19517331.103    -6893172.532 8  -5301896.45721        29.250           1.031
  22544685.938     4527228.305 6   3514005.05521        12.750           0.469
  21036153.063   -16814188.314 7 -12949413.37222        23.500           1.594
 91  6 25 21 14 59.9970000  0  3G13G 2G12
  19516229.142    -6898958.920 8  -5306405.33021        28.750           1.000
  22549137.517     4550602.766 6   3532218.79921        14.000           0.375
  21026268.821   -16866133.908 7 -12989890.43622        23.750           1.594
 91  6 25 21 15 14.9970000  0  3G13G 2G12
  19515150.798    -6904625.653 8  -5310820.97921        28.250           0.906
  22553592.704     4574022.076 6   3550467.53521        14.000           0.344
  21016397.790   -16917990.946 7 -13030298.50422        23.250           1.625
 91  6 25 21 15 29.9970000  0  3G13G 2G12
  19514096.173    -6910174.879 8  -5315145.05021        28.500           0.938
  22558058.251     4597484.279 6   3568749.73721        14.750           0.375
  21006547.149   -16969761.110 7 -13070638.87222        23.500           1.625
 91  6 25 21 15 44.9970000  0  3G13G 2G12
  19513060.907    -6915604.296 8  -5319375.77421        28.250           0.938
  22562529.884     4620991.872 6   3587067.30821        13.750           0.438
  20996709.915   -17021441.528 7 -13110909.30522        23.750           1.656
 91  6 25 21 15 59.9970000  0  3G13G 2G12
  19512052.563    -6920915.230 8  -5323514.16821        28.750           0.969
  22567010.103     4644543.786 6   3605419.36021        13.500           0.563
  20986894.337   -17073032.904 7 -13151110.36622        23.500           1.625
 91  6 25 21 16 14.9970000  0  3G13G 2G12
  19511064.774    -6926104.803 8  -5327557.99921        28.500           0.938
  22571503.368     4668143.125 6   3623808.35721        14.500           0.406
  20977092.321   -17124531.829 7 -13191239.38322        23.500           1.625
 91  6 25 21 16 29.9970000  0  3G13G 2G12
  19510099.587    -6931174.114 8  -5331508.10821        28.500           0.906
  22576005.610     4691788.834 6   3642233.51921        14.500           0.344
  20967310.626   -17175938.822 7 -13231296.75422        23.750           1.625
 91  6 25 21 16 44.9970000  0  3G13G 2G12
  19509158.720    -6936123.464 8  -5335364.75321        28.250           1.031
  22580509.735     4715480.822 6   3660694.77221        14.500           0.406
  20957544.626   -17227253.610 7 -13271282.28722        23.750           1.531
 91  6 25 21 16 59.9970000  0  3G13G 2G12
  19508239.181    -6940953.767 8  -5339128.64021        28.000           0.875
  22585029.696     4739218.306 6   3679191.42521        13.500           0.500
  20947797.321   -17278476.860 7 -13311196.49122        24.250           1.531
 91  6 25 21 17 14.9970000  0  3G13G 2G12
  19507341.931    -6945663.325 8  -5342798.42221        28.000           1.063
  22589556.048     4763003.296 6   3697725.08621        14.250           0.438
  20938068.884   -17329606.016 7 -13351037.38222        24.750           1.656
 91  6 25 21 17 29.9970000  0  3G13G 2G12
  19506467.618    -6950255.068 8  -5346376.41621        28.000           1.094
  22594089.298     4786833.174 6   3716293.75021        12.500           0.438
  20928355.017   -17380643.358 7 -13390806.72222        25.000           1.688
 91  6 25 21 17 44.9970000  0  3G13G 2G12
  19505617.603    -6954727.490 8  -5349861.42921        28.250           1.031
  22598636.274     4810709.547 6   3734898.64821        14.000           0.469
  20918663.313   -17431586.736 7 -13430502.84222        24.750           1.625
 91  6 25 21 17 59.9970000  0  3G13G 2G12
  19504790.032    -6959079.215 8  -5353252.38621        28.500           1.000
  22603187.954     4834633.761 6   3753540.84021        13.250           0.500
  20908987.884   -17482434.549 7 -13470124.49821        24.250           1.438
 91  6 25 21 18 14.9970000  0  3G13G 2G12
  19503983.892    -6963315.046 8  -5356553.03221        28.250           1.031
  22607747.899     4858601.456 6   3772216.87321        13.250           0.531
  20899329.493   -17533190.917 7 -13509674.89722        25.250           1.656
 91  6 25 21 18 29.9970000  0  3G13G 2G12
  19503198.056    -6967439.540 7  -5359766.93421        27.500           1.031
  22612318.235     4882608.319 6   3790923.44221        13.000           0.469
  20889688.813   -17583859.828 7 -13549157.15422        25.750           1.625
 91  6 25 21 18 44.9970000  0  3G13G 2G12
  19502436.595    -6971446.208 8  -5362889.02421        28.250           1.125
  22616891.188     4906660.795 6   3809665.52921        12.500           0.375
  20880060.079   -17634434.330 7 -13588565.83722        24.000           1.688
 91  6 25 21 18 59.9970000  0  3G13G 2G12
  19501694.892    -6975330.296 8  -5365915.58121        28.000           1.156
  22621479.321     4930763.740 6   3828447.01921        13.000           0.375
  20870459.774   -17684909.128 7 -13627896.84022        24.500           1.563
 91  6 25 21 19 14.9970000  0  3G13G 2G12
  19500980.087    -6979099.284 8  -5368852.47021        28.250           1.156
  22626074.782     4954910.146 6   3847262.30121        13.500           0.500
  20860868.899   -17735291.060 7 -13667155.47422        24.500           1.750
 91  6 25 21 19 29.9970000  0  3G13G 2G12
  19500286.478    -6982750.098 8  -5371697.26621        28.250           1.063
  22630675.532     4979103.243 5   3866113.98121        11.500           0.500
  20851300.024   -17785576.367 7 -13706338.82022        24.750           1.781
 91  6 25 21 19 44.9970000  0  3G13G 2G12
  19499611.274    -6986285.795 7  -5374452.35821        27.250           1.094
  22635292.720     5003340.020 6   3884999.69921        12.000           0.406
  20841751.907   -17835767.526 7 -13745448.79522        25.500           1.750
 91  6 25 21 19 59.9970000  0  3G13G 2G12
  19498961.899    -6989709.880 7  -5377120.48621        27.750           1.125
  22639909.548     5027617.158 6   3903916.86321        12.750           0.500
  20832217.618   -17885867.511 7 -13784487.73022        25.000           1.719
 91  6 25 21 20 14.9970000  0  3G13G 2G12
  19498330.642    -6993017.605 8  -5379697.94421        28.000           1.188
  22644537.735     5051939.451 6   3922869.21521        12.500           0.469
  20822699.142   -17935871.062 7 -13823451.52922        24.500           1.719
 91  6 25 21 20 29.9970000  0  3G13G 2G12
  19497724.228    -6996207.303 7  -5382183.43021        27.500           1.156
  22649175.446     5076308.781 6   3941858.22221        13.250           0.500
  20813205.399   -17985776.045 7 -13862338.51522        25.250           1.813
 91  6 25 21 20 44.9970000  0  3G13G 2G12
  19497137.712    -6999284.237 8  -5384581.04421        28.000           1.125
  22653820.790     5100720.097 6   3960879.94621        13.500           0.469
  20803724.798   -18035587.137 7 -13901152.34222        25.000           1.688
 91  6 25 21 20 59.9970000  0  3G13G 2G12
  19496575.876    -7002241.974 7  -5386885.78021        27.750           1.156
  22658470.423     5125180.300 5   3979939.74921        11.500           0.594
  20794266.704   -18085297.238 7 -13939887.46922        25.500           1.688
 91  6 25 21 21 14.9970000  0  3G13G 2G12
  19496037.868    -7005080.527 8  -5389097.64721        28.250           1.094
  22663139.360     5149689.336 6   3999037.62921        12.000           0.563
  20784825.587   -18134905.890 7 -13978543.54622        25.500           1.719
 91  6 25 21 21 29.9970000  0  3G13G 2G12
  19495517.501    -7007806.452 8  -5391221.75221        28.000           1.094
  22667812.946     5174240.785 6   4018168.53721        12.250           0.406
  20775403.438   -18184419.013 7 -14017125.19122        25.500           1.719
 91  6 25 21 21 44.9970000  0  3G13G 2G12
  19495020.790    -7010415.632 7  -5393254.89121        27.750           1.125
  22672490.274     5198839.034 6   4037335.92721        12.000           0.406
  20765999.681   -18233831.832 7 -14055628.66622        25.500           1.781
 91  6 25 21 21 59.9970000  0  3G13G 2G12
  19494545.696    -7012910.468 8  -5395198.92421        28.000           1.156
  22677182.048     5223481.903 6   4056538.09621        12.500           0.469
  20756617.267   -18283146.075 7 -14094055.34222        25.750           1.688
 91  6 25 21 22 14.9970000  0  3G13G 2G12
  19494092.970    -7015297.246 7  -5397058.75921        27.750           1.188
  22681877.946     5248163.239 6   4075770.20221        13.250           0.313
  20747249.688   -18332367.715 7 -14132409.86122        25.000           1.688
 91  6 25 21 22 29.9970000  0  3G13G 2G12
  19493658.212    -7017575.922 7  -5398834.35821        27.500           1.156
  22686583.634     5272883.473 5   4095032.65521        11.500           0.375
  20737902.712   -18381496.017 7 -14170691.63822        26.250           1.844
 91  6 25 21 22 44.9970000  0  3G13G 2G12
  19493247.618    -7019739.838 7  -5400520.53521        27.500           1.219
  22691296.915     5297649.423 6   4114330.67021        12.000           0.563
  20728570.603   -18430523.866 7 -14208895.14722        25.500           1.594
 91  6 25 21 22 59.9970000  0  3G13G 2G12
  19492856.790    -7021789.558 7  -5402117.72821        27.000           1.125
  22696017.485     5322460.405 6   4133663.79321        12.500           0.563
  20719261.181   -18479451.392 7 -14247020.48422        26.250           1.594
 91  6 25 21 23 14.9970000  0  3G13G 2G12
  19492488.665    -7023723.842 7  -5403624.96621        27.500           1.094
  22700747.915     5347318.022 6   4153033.29721        13.500           0.531
  20709967.290   -18528276.723 7 -14285066.18422        25.000           1.656
 91  6 25 21 23 29.9970000  0  3G13G 2G12
  19492141.353    -7025547.643 7  -5405046.12621        26.750           1.125
  22705486.595     5372217.519 6   4172435.41721        12.500           0.438
  20700698.728   -18577004.116 7 -14323035.57422        26.250           1.656
 91  6 25 21 23 44.9970000  0  3G13G 2G12
  19491815.970    -7027254.277 7  -5406375.97721        27.000           1.125
  22710230.157     5397165.985 5   4191875.69421        11.500           0.375
  20691446.337   -18625626.190 7 -14360922.89822        26.500           1.688
 91  6 25 21 23 59.9970000  0  3G13G 2G12
  19491513.017    -7028851.611 7  -5407620.66321        27.250           1.219
  22714989.220     5422155.601 6   4211348.02221        12.750           0.344
  20682210.954   -18674150.375 7 -14398733.93722        25.500           1.688
 91  6 25 21 24 14.9970000  0  3G13G 2G12
  19491228.563    -7030336.055 7  -5408777.37321        26.500           1.219
  22719752.243     5447189.864 6   4230855.16321        12.250           0.375
  20672996.431   -18722572.744 7 -14436465.63022        26.250           1.781
 91  6 25 21 24 29.9970000  0  3G13G 2G12
  19490969.157    -7031710.644 7  -5409848.49621        27.000           1.156
  22724526.173     5472266.010 6   4250394.92021        12.000           0.406
  20663800.938   -18770895.728 7 -14474119.90622        26.500           1.625
 91  6 25 21 24 44.9970000  0  3G13G 2G12
  19490728.696    -7032970.889 7  -5410830.51621        26.750           1.094
  22729303.985     5497388.731 6   4269970.96621        12.750           0.375
  20654624.821   -18819114.140 7 -14511692.68922        25.750           1.594
 91  6 25 21 24 59.9970000  0  3G13G 2G12
  19490510.892    -7034118.713 7  -5411724.92821        26.750           1.219
  22734097.321     5522556.625 6   4289582.23521        13.000           0.406
  20645469.001   -18867229.155 7 -14549184.89622        25.750           1.594
 91  6 25 21 25 14.9970000  0  3G13G 2G12
  19490311.360    -7035157.394 7  -5412534.30521        26.250           1.219
  22738890.696     5547766.556 6   4309226.22721        12.000           0.375
  20636333.290   -18915243.469 7 -14586598.63422        26.500           1.813
 91  6 25 21 25 29.9970000  0  3G13G 2G12
  19490135.399    -7036082.270 7  -5413254.99421        27.000           1.188
  22743699.329     5573023.351 6   4328906.74621        12.750           0.375
  20627216.298   -18963151.977 7 -14623929.92822        25.500           1.656
 91  6 25 21 25 44.9970000  0  3G13G 2G12
  19489981.501    -7036893.222 7  -5413886.90921        26.750           1.281
  22748513.634     5598327.115 6   4348623.88321        12.750           0.313
  20618117.118   -19010953.963 7 -14661178.21922        25.000           1.656
 91  6 25 21 25 59.9970000  0  3G13G 2G12
  19489846.438    -7037594.757 7  -5414433.57621        27.000           1.250
  22753338.587     5623673.509 6   4368374.23721        12.750           0.344
  20609043.032   -19058653.466 7 -14698346.65222        26.000           1.813
 91  6 25 21 26 14.9970000  0  3G13G 2G12
  19489735.595    -7038186.287 7  -5414894.51521        27.500           1.281
  22758166.759     5649063.355 5   4388158.43621        11.250           0.469
  20599983.446   -19106249.350 7 -14735434.34422        25.750           1.781
 91  6 25 21 26 29.9970000  0  3G13G 2G12
  19489646.063    -7038664.217 7  -5415266.93621        27.750           1.250
  22763009.579     5674500.594 5   4407979.56621        10.500           0.344
  20590948.126   -19153737.348 7 -14772437.96322        24.750           1.844
 91  6 25 21 26 44.9970000  0  3G13G 2G12
  19489576.431    -7039031.238 8  -5415552.92921        28.000           1.250
  22767857.962     5699982.696 5   4427835.65421        10.500           0.406
  20581931.868   -19201119.568 7 -14809359.16322        25.500           1.781
 91  6 25 21 26 59.9970000  0  3G13G 2G12
  19489527.313    -7039287.153 7  -5415752.35821        27.500           1.219
  22772717.821     5725509.787 5   4447726.82321        11.250           0.375
  20572933.993   -19248395.483 7 -14846197.53222        25.000           1.906
 91  6 25 21 27 14.9970000  0  3G13G 2G12
  19489498.446    -7039436.901 7                        27.750
  22777581.165     5751077.355 5   4467649.50021        11.750           0.344
  20563960.063   -19295569.282 7 -14882956.32322        25.250           1.844
 91  6 25 21 27 29.9970000  0  3G13G 2G12
  19489491.813    -7039474.518 7                        27.250
  22782459.321     5776691.741 6   4487608.65921        12.750           0.375
  20555003.665   -19342634.285 7 -14919630.33822        25.500           1.875
 91  6 25 21 27 44.9970000  0  3G13G 2G12
  19489503.806    -7039400.396 7                        27.500
  22787340.712     5802352.540 6   4507603.98121        12.750           0.250
  20546065.173   -19389590.476 7 -14956219.56522        24.750           1.656
